Christmas Island, Australian Islands

8:52 PM CXT on July 24, 2016 (GMT +0700)
Christmas Island

Weather History for YPXM - December, 2012

Change the Weather History Date:

Monday, December 10, 2012

  Actual Average Record
Temperature  
Mean Temperature 80 °F -  
Max Temperature 84 °F 79 °F 84 °F (2011)
Min Temperature 77 °F 70 °F 68 °F (2000)
Cooling Degree Days 16    
Growing Degree Days 30 (Base 50)    
Moisture  
Dew Point 75 °F    
Average Humidity 85    
Maximum Humidity 94    
Minimum Humidity 76    
Precipitation  
Precipitation 0.00 in - - ()
Sea Level Pressure  
Sea Level Pressure 29.86 in    
Wind  
Wind Speed 10 mph ()    
Max Wind Speed 14 mph    
Max Gust Speed -    
Averages and records for this station are not official NWS values.
T = Trace of Precipitation, MM = Missing Value Source: Averaged Metar Reports

Daily Weather History Graph

Daily Weather History Graph

Search for Another Location

Airport or City:

Trip Planner

Search our weather history database for the weather conditions in past years. The results will help you decide how hot, cold, wet, or windy it might be!

Date:

Astronomy

Dec. 10, 2012 Rise Set
Actual Time 5:28 AM CXT 6:11 PM CXT
Civil Twilight 5:05 AM CXT 6:34 PM CXT
Nautical Twilight 4:38 AM CXT 7:01 PM CXT
Astronomical Twilight 4:10 AM CXT 7:29 PM CXT
Moon 2:14 AM CXT (12/10) 3:03 PM CXT (12/10)
Length of Visible Light 13h 29m
Length of Day
12h 43m
Waning Crescent, 14% of the Moon is Illuminated
Dec 10
Waning Crescent
Dec 13
New
Dec 20
First Quarter
Dec 28
Full
Jan 5
Last Quarter

Hourly Weather History & Observations

Time (CXT) Temp. Heat Index Dew Point Humidity Pressure Visibility Wind Dir Wind Speed Gust Speed Precip Events Conditions
12:00 AM 79 °F - 76 °F 86% 29.87 in - SE 10.4 mph - -  
12:00 AM 78.8 °F - 75.2 °F 89% 29.92 in - SE 10.4 mph - N/A   Unknown
1:00 AM 78 °F - 76 °F 91% 29.85 in - SE 11.5 mph - -  
1:00 AM 78.8 °F - 75.2 °F 89% 29.89 in - SE 11.5 mph - N/A   Unknown
2:00 AM 77.0 °F - 75.2 °F 94% 29.86 in - SE 13.8 mph - N/A   Unknown
3:00 AM 78 °F - 75 °F 87% 29.81 in - SE 12.7 mph - -  
3:00 AM 77.0 °F - 75.2 °F 94% 29.86 in - SE 12.7 mph - N/A   Unknown
4:00 AM 78 °F - 75 °F 86% 29.81 in - SE 11.5 mph - -  
4:00 AM 77.0 °F - 75.2 °F 94% 29.86 in - SE 11.5 mph - N/A   Unknown
5:00 AM 78.8 °F - 75.2 °F 89% 29.86 in - SE 10.4 mph - N/A   Unknown
6:00 AM 78 °F - 75 °F 88% 29.83 in - SSE 10.4 mph - -  
6:00 AM 78.8 °F - 75.2 °F 89% 29.86 in - SSE 10.4 mph - N/A   Unknown
7:00 AM 79 °F - 75 °F 84% 29.85 in - SSE 10.4 mph - -  
7:00 AM 78.8 °F - 75.2 °F 89% 29.89 in - SSE 10.4 mph - N/A   Unknown
8:00 AM 80.6 °F 86.2 °F 75.2 °F 84% 29.89 in - SSE 9.2 mph - N/A   Unknown
9:00 AM 80 °F - 76 °F 85% 29.87 in - SSE 10.4 mph - -  
9:00 AM 80.6 °F 87.1 °F 77.0 °F 89% 29.92 in - SSE 10.4 mph - N/A   Unknown
10:00 AM 82 °F - 76 °F 77% 29.88 in - SE 11.5 mph - -  
10:00 AM 82.4 °F 89.5 °F 75.2 °F 79% 29.92 in - SE 11.5 mph - N/A   Unknown
11:00 AM 82.4 °F 89.5 °F 75.2 °F 79% 29.89 in - SSE 9.2 mph - N/A   Unknown
12:00 PM 82 °F - 76 °F 76% 29.85 in - SE 12.7 mph - -  
12:00 PM 82.4 °F 89.5 °F 75.2 °F 79% 29.89 in - SE 12.7 mph - N/A   Unknown
1:00 PM 82 °F - 76 °F 76% 29.85 in - SE 12.7 mph - -  
1:00 PM 82.4 °F 89.5 °F 75.2 °F 79% 29.89 in - SE 12.7 mph - N/A   Unknown
2:00 PM 82.4 °F 89.5 °F 75.2 °F 79% 29.86 in - SE 12.7 mph - N/A   Unknown
3:00 PM 82 °F - 76 °F 78% 29.80 in - SE 10.4 mph - -  
3:00 PM 82.4 °F 90.9 °F 77.0 °F 84% 29.83 in - SE 10.4 mph - N/A   Unknown
4:00 PM 81 °F - 75 °F 78% 29.79 in - SE 11.5 mph - -  
4:00 PM 80.6 °F 86.2 °F 75.2 °F 84% 29.83 in - SE 11.5 mph - N/A   Unknown
5:00 PM 80.6 °F 86.2 °F 75.2 °F 84% 29.83 in - SSE 11.5 mph - N/A   Unknown
6:00 PM 79 °F - 75 °F 84% 29.81 in - SE 10.4 mph - -  
6:00 PM 78.8 °F - 75.2 °F 89% 29.86 in - SE 10.4 mph - N/A   Unknown
7:00 PM 79 °F - 75 °F 85% 29.84 in - SE 10.4 mph - -  
7:00 PM 78.8 °F - 75.2 °F 89% 29.86 in - SE 10.4 mph - N/A   Unknown
8:00 PM 78.8 °F - 75.2 °F 89% 29.89 in - SSE 8.1 mph - N/A   Unknown
9:00 PM 78 °F - 75 °F 88% 29.86 in - SSE 9.2 mph - -  
9:00 PM 78.8 °F - 75.2 °F 89% 29.89 in - SSE 9.2 mph - N/A   Unknown
10:00 PM 78 °F - 75 °F 87% 29.87 in - SE 10.4 mph - -  
10:00 PM 78.8 °F - 75.2 °F 89% 29.89 in - SE 10.4 mph - N/A   Unknown
11:00 PM 78.8 °F - 75.2 °F 89% 29.89 in - SE 10.4 mph - N/A   Unknown